Regional Weather Roundup
Issued by NWS

Home | Current Version | Previous Version | Graphics & Text | Print | Product List | Glossary On
Versions: 1 2 3 4 5 6 7 8 9 10 11 12 13 14 15 16 17 18 19 20 21 22 23 24 25 26 27 28 29 30 31 32 33 34 35 36 37 38 39 40 41 42 43 44 45 46 47 48 49 50
000
ASUS43 KLSX 230757
RWRMO

WEATHER SUMMARY FOR MISSOURI
NATIONAL WEATHER SERVICE SPRINGFIELD MO
300 AM CDT SAT SEP 23 2017

NOTE: "FAIR" INDICATES FEW OR NO CLOUDS BELOW 12,000 FEET WITH NO
       SIGNIFICANT WEATHER AND/OR OBSTRUCTIONS TO VISIBILITY.
       CURRENT SKY AND/OR WEATHER CONDITIONS ARE NOT AVAILABLE FOR
       CHILLICOTHE AND FARMINGTON.

MOZ001>031-035>038-043-044-053-054-230900-
...NORTHERN AND WESTERN MISSOURI...

CITY           SKY/WX    TMP DP  RH WIND       PRES   REMARKS
KANSAS CTY INT CLEAR     71  67  87 S8        29.96F
LEE`S SUMMIT   CLEAR     73  70  90 SE8       29.98S
ST JOSEPH      CLEAR     73  70  90 S7        29.95S
CHILLICOTHE      N/A     70  69  97 CALM      29.98F

$$
MOZ066>068-077>081-088>096-101>105-230900-
...SOUTHWEST MISSOURI...

CITY           SKY/WX    TMP DP  RH WIND       PRES   REMARKS
SPRINGFIELD    CLEAR     71  67  87 SE8       30.00F
JOPLIN         CLEAR     72  68  87 S8        29.98S

$$
MOZ032>034-039>042-045>050-055>058-069>072-230900-
...CENTRAL MISSOURI...

CITY           SKY/WX    TMP DP  RH WIND       PRES   REMARKS
COLUMBIA       NOT AVBL
JEFFERSON CITY CLEAR     70  66  87 SE5       29.99S
ROLLA          CLEAR     72  64  76 S8        30.03S
SEDALIA        CLEAR     72  69  90 S8        30.00S
WARRENSBURG    CLEAR     72  66  83 S5        29.97F

$$
MOZ051-052-059>065-230900-
...EAST CENTRAL MISSOURI...

CITY           SKY/WX    TMP DP  RH WIND       PRES   REMARKS
ST LOUIS INTL  CLEAR     75  65  70 CALM      30.02S

$$
MOZ072>076-082>087-097>100-106>115-230900-
...SOUTH CENTRAL AND SOUTHEAST MISSOURI...

CITY           SKY/WX    TMP DP  RH WIND       PRES   REMARKS
CAPE GIRARDEAU CLEAR     67  65  93 CALM      30.00F
POPLAR BLUFF   CLEAR     67  66  97 CALM      30.00S
WEST PLAINS    CLEAR     66  64  93 CALM      30.04F

$$



USA.gov is the U.S. government's official web portal to all federal, state and local government web resources and services.